This is the latest recevied weather packets stored in our database for station/object R6DH-11. If no packets are shown the sender has not sent any weather packets the latest 10 day(s).
| Time | Temp. | Humidity | Pressure | Rain* | Wind** | Luminosity | Snow |
|---|---|---|---|---|---|---|---|
| 1777085214 | 3.33° C | 79% | 1011 hPa | - | - | - | - |
| 1777084314 | 3.33° C | 79% | 1010.8 hPa | - | - | - | - |
| 1777083413 | 3.89° C | 78% | 1010.5 hPa | - | - | - | - |
| 1777082513 | 3.89° C | 78% | 1010.4 hPa | - | - | - | - |
| 1777081613 | 3.89° C | 77% | 1010.2 hPa | - | - | - | - |
| 1777080713 | 3.89° C | 76% | 1009.9 hPa | - | - | - | - |
| 1777079813 | 3.89° C | 76% | 1009.7 hPa | - | - | - | - |
| 1777078913 | 4.44° C | 75% | 1009.5 hPa | - | - | - | - |
| 1777078012 | 4.44° C | 76% | 1009.1 hPa | - | - | - | - |
| 1777077112 | 5° C | 76% | 1008.6 hPa | - | - | - | - |
| 1777076215 | 5° C | 77% | 1009.3 hPa | - | - | - | - |
| 1777075315 | 4.44° C | 78% | 1008.8 hPa | - | - | - | - |
| 1777074415 | 4.44° C | 78% | 1008.7 hPa | - | - | - | - |
| 1777073515 | 4.44° C | 78% | 1008.6 hPa | - | - | - | - |
| 1777072614 | 4.44° C | 78% | 1008.3 hPa | - | - | - | - |
| 1777071714 | 3.89° C | 79% | 1008.2 hPa | - | - | - | - |
| 1777070814 | 4.44° C | 77% | 1008.2 hPa | - | - | - | - |
| 1777069914 | 4.44° C | 77% | 1008.2 hPa | - | - | - | - |
| 1777069014 | 4.44° C | 76% | 1008.6 hPa | - | - | - | - |
| 1777068114 | 4.44° C | 76% | 1008.6 hPa | - | - | - | - |
| 1777067213 | 5° C | 76% | 1008.8 hPa | - | - | - | - |
| 1777066314 | 5° C | 78% | 1008.7 hPa | - | - | - | - |
| 1777065413 | 5° C | 78% | 1008.6 hPa | - | - | - | - |
| 1777064513 | 5.56° C | 77% | 1008.6 hPa | - | - | - | - |
| 1777063613 | 6.11° C | 75% | 1008.3 hPa | - | - | - | - |
* Rain since midnight (hover to see other rain measurements)
** Current wind speed in m/s (hover to see current wind gust speed)